QPF
0.10 0.09 0.08 0.11 0.20 0.22 0.20 0.20 0.21 0.18 0.16 0.18 0.14 0.11 0.11 0.12 0.11 0.08 0.08 0.06 0.05 0.04 0.04 0.04 0.03 0.03 0.04 0.05 0.04 0.04 0.03 0.04 0.04 0.03 0.02 0.02 0.03 0.04 0.04 0.06 0.09 0.08 0.07
0.10 0.09 0.07 0.09 0.13 0.15 0.14 0.12 0.12 0.16 0.15 0.16 0.16 0.14 0.14 0.14 0.16 0.14 0.10 0.08 0.07 0.06 0.04 0.04 0.03 0.03 0.05 0.05 0.05 0.04 0.04 0.05 0.05 0.03 0.03 0.03 0.03 0.05 0.06 0.07 0.09 0.11 0.15
0.11 0.08 0.07 0.08 0.09 0.08 0.07 0.06 0.08 0.12 0.15 0.18 0.18 0.15 0.13 0.13 0.14 0.13 0.09 0.08 0.07 0.05 0.04 0.04 0.04 0.04 0.04 0.06 0.06 0.05 0.04 0.05 0.04 0.03 0.03 0.03 0.03 0.04 0.05 0.06 0.06 0.08 0.15
0.10 0.07 0.06 0.06 0.06 0.06 0.06 0.06 0.05 0.09 0.14 0.18 0.18 0.13 0.10 0.10 0.11 0.10 0.08 0.07 0.06 0.06 0.05 0.04 0.04 0.05 0.06 0.07 0.08 0.06 0.05 0.04 0.03 0.03 0.03 0.03 0.04 0.04 0.04 0.05 0.05 0.06 0.07
0.08 0.07 0.06 0.05 0.05 0.05 0.06 0.05 0.05 0.07 0.10 0.14 0.13 0.10 0.07 0.06 0.07 0.06 0.05 0.04 0.04 0.05 0.04 0.04 0.05 0.05 0.05 0.05 0.06 0.06 0.06 0.05 0.04 0.03 0.03 0.03 0.04 0.04 0.04 0.03 0.03 0.03 0.04
0.07 0.07 0.06 0.05 0.04 0.05 0.07 0.09 0.09 0.09 0.10 0.10 0.07 0.06 0.05 0.04 0.04 0.04 0.03 0.04 0.04 0.03 0.04 0.04 0.05 0.05 0.05 0.06 0.05 0.04 0.06 0.06 0.06 0.04 0.03 0.03 0.05 0.05 0.03 0.02 0.02 0.01 0.02
0.10 0.09 0.06 0.04 0.04 0.05 0.07 0.09 0.09 0.10 0.10 0.09 0.08 0.08 0.08 0.06 0.04 0.03 0.03 0.04 0.03 0.03 0.05 0.05 0.03 0.02 0.03 0.03 0.02 0.03 0.05 0.06 0.06 0.05 0.05 0.05 0.05 0.04 0.03 0.02 0.02 0.01 0.02
0.14 0.11 0.09 0.06 0.05 0.07 0.07 0.08 0.09 0.08 0.09 0.09 0.07 0.09 0.11 0.11 0.08 0.05 0.03 0.02 0.02 0.03 0.03 0.03 0.02 0.02 0.03 0.02 0.02 0.01 0.02 0.05 0.07 0.07 0.06 0.04 0.03 0.02 0.02 0.02 0.02 0.02 0.01
0.13 0.11 0.08 0.08 0.09 0.08 0.08 0.09 0.08 0.09 0.12 0.10 0.09 0.09 0.11 0.14 0.12 0.09 0.05 0.04 0.04 0.05 0.04 0.03 0.02 0.01 0.02 0.03 0.02 0.01 0.01 0.02 0.04 0.05 0.05 0.04 0.04 0.04 0.04 0.03 0.02 0.02 0.01
0.11 0.09 0.08 0.11 0.12 0.09 0.09 0.08 0.08 0.10 0.11 0.13 0.14 0.13 0.14 0.13 0.11 0.10 0.09 0.08 0.07 0.05 0.03 0.02 0.01 0.01 0.02 0.03 0.03 0.01 0.01 0.01 0.01 0.03 0.05 0.05 0.06 0.05 0.05 0.05 0.04 0.04 0.04
0.08 0.07 0.07 0.09 0.11 0.11 0.11 0.10 0.09 0.09 0.07 0.09 0.11 0.13 0.12 0.10 0.07 0.07 0.07 0.07 0.06 0.03 0.03 0.02 0.01 0.01 0.01 0.03 0.04 0.01 0.01 0.00 0.01 0.02 0.02 0.03 0.04 0.04 0.03 0.04 0.05 0.05 0.05
0.07 0.07 0.07 0.08 0.09 0.09 0.10 0.10 0.08 0.07 0.09 0.09 0.08 0.07 0.08 0.06 0.06 0.07 0.05 0.05 0.05 0.03 0.02 0.02 0.01 0.01 0.01 0.01 0.01 0.01 0.01 0.01 0.01 0.01 0.01 0.01 0.02 0.02 0.03 0.04 0.05 0.05 0.05
0.08 0.08 0.07 0.08 0.08 0.08 0.07 0.07 0.06 0.06 0.07 0.07 0.06 0.05 0.06 0.06 0.07 0.07 0.06 0.05 0.04 0.02 0.02 0.02 0.01 0.01 0.01 0.02 0.02 0.01 0.01 0.01 0.01 0.01 0.02 0.02 0.02 0.02 0.02 0.02 0.03 0.03 0.03
0.11 0.11 0.11 0.09 0.08 0.07 0.05 0.06 0.05 0.04 0.04 0.04 0.04 0.05 0.05 0.05 0.07 0.07 0.08 0.08 0.07 0.05 0.05 0.05 0.02 0.02 0.01 0.01 0.01 0.01 0.01 0.01 0.01 0.01 0.01 0.02 0.03 0.02 0.02 0.02 0.03 0.03 0.03
0.07 0.10 0.15 0.18 0.16 0.12 0.07 0.05 0.04 0.05 0.05 0.05 0.05 0.06 0.06 0.07 0.08 0.08 0.09 0.10 0.09 0.07 0.07 0.06 0.04 0.02 0.02 0.01 0.02 0.01 0.01 0.01 0.01 0.01 0.02 0.02 0.03 0.02 0.01 0.02 0.02 0.02 0.02
0.07 0.07 0.09 0.14 0.17 0.17 0.13 0.09 0.06 0.06 0.06 0.06 0.06 0.07 0.07 0.06 0.06 0.06 0.07 0.09 0.08 0.07 0.05 0.04 0.03 0.02 0.03 0.02 0.03 0.02 0.02 0.02 0.01 0.01 0.01 0.01 0.01 0.01 0.01 0.01 0.01 0.01 0.01
0.08 0.08 0.09 0.10 0.11 0.12 0.12 0.13 0.13 0.10 0.08 0.07 0.06 0.07 0.08 0.09 0.09 0.10 0.10 0.09 0.08 0.07 0.06 0.04 0.05 0.03 0.03 0.04 0.03 0.03 0.02 0.01 0.01 0.01 0.02 0.02 0.02 0.01 0.01 0.01 0.01 0.01 0.01
0.08 0.08 0.08 0.08 0.08 0.08 0.08 0.09 0.11 0.12 0.12 0.10 0.08 0.08 0.09 0.12 0.14 0.15 0.15 0.12 0.10 0.08 0.07 0.05 0.04 0.04 0.04 0.05 0.04 0.03 0.01 0.01 0.01 0.01 0.01 0.02 0.02 0.02 0.01 0.01 0.01 0.01 0.01
0.06 0.07 0.07 0.06 0.07 0.07 0.07 0.07 0.07 0.08 0.08 0.08 0.09 0.10 0.09 0.12 0.11 0.10 0.09 0.09 0.07 0.07 0.08 0.06 0.05 0.05 0.03 0.03 0.03 0.03 0.02 0.02 0.01 0.02 0.01 0.02 0.02 0.02 0.01 0.01 0.01 0.01 0.01
0.06 0.06 0.05 0.05 0.05 0.06 0.06 0.06 0.06 0.06 0.06 0.04 0.04 0.04 0.05 0.07 0.07 0.08 0.08 0.08 0.09 0.08 0.08 0.07 0.05 0.05 0.04 0.04 0.04 0.03 0.03 0.03 0.02 0.01 0.01 0.01 0.01 0.02 0.02 0.01 0.01 0.01 0.02
0.05 0.05 0.04 0.03 0.03 0.02 0.02 0.02 0.03 0.03 0.04 0.03 0.03 0.03 0.03 0.04 0.05 0.05 0.04 0.06 0.07 0.07 0.08 0.07 0.06 0.06 0.06 0.06 0.05 0.05 0.04 0.03 0.02 0.01 0.02 0.02 0.03 0.03 0.03 0.02 0.02 0.02 0.02
0.03 0.03 0.03 0.03 0.02 0.01 0.02 0.02 0.02 0.02 0.03 0.03 0.03 0.04 0.04 0.03 0.03 0.03 0.03 0.04 0.05 0.05 0.06 0.06 0.05 0.05 0.05 0.06 0.06 0.04 0.03 0.03 0.02 0.02 0.03 0.02 0.03 0.03 0.03 0.02 0.03 0.03 0.03
0.02 0.02 0.02 0.02 0.02 0.02 0.03 0.04 0.04 0.03 0.03 0.03 0.03 0.04 0.04 0.03 0.02 0.02 0.03 0.03 0.04 0.04 0.05 0.06 0.05 0.05 0.06 0.06 0.06 0.05 0.04 0.03 0.03 0.04 0.04 0.04 0.04 0.03 0.03 0.03 0.03 0.03 0.03
0.02 0.02 0.02 0.03 0.04 0.05 0.06 0.06 0.05 0.04 0.03 0.03 0.03 0.04 0.05 0.05 0.03 0.03 0.02 0.02 0.02 0.02 0.03 0.03 0.03 0.03 0.04 0.05 0.05 0.04 0.05 0.04 0.04 0.04 0.04 0.04 0.04 0.03 0.03 0.04 0.03 0.03 0.04
0.04 0.06 0.06 0.05 0.05 0.07 0.08 0.07 0.05 0.03 0.03 0.03 0.03 0.03 0.04 0.04 0.03 0.03 0.03 0.02 0.02 0.02 0.02 0.02 0.02 0.02 0.02 0.03 0.04 0.04 0.04 0.05 0.05 0.04 0.04 0.03 0.02 0.03 0.03 0.04 0.03 0.04 0.04
0.02 0.03 0.05 0.05 0.05 0.04 0.04 0.03 0.02 0.02 0.03 0.02 0.03 0.04 0.05 0.05 0.05 0.05 0.04 0.03 0.03 0.02 0.03 0.03 0.03 0.02 0.02 0.03 0.05 0.05 0.05 0.05 0.05 0.05 0.04 0.04 0.04 0.04 0.04 0.04 0.04 0.05 0.06
MSLP
1018.20 1018.21 1018.22 1018.26 1018.35 1018.50 1018.69 1018.91 1019.12 1019.26 1019.31 1019.23 1019.04 1018.76 1018.45 1018.17 1017.97 1017.90 1017.97 1018.16 1018.44 1018.76 1019.06 1019.31 1019.48 1019.57 1019.59 1019.59 1019.57 1019.59 1019.63 1019.72 1019.83 1019.97 1020.10 1020.22 1020.33 1020.42 1020.49 1020.55 1020.60 1020.63 1020.65
1018.61 1018.59 1018.58 1018.59 1018.66 1018.78 1018.96 1019.16 1019.35 1019.49 1019.54 1019.47 1019.28 1019.00 1018.67 1018.35 1018.08 1017.93 1017.91 1018.00 1018.20 1018.45 1018.71 1018.94 1019.11 1019.22 1019.27 1019.29 1019.29 1019.30 1019.34 1019.41 1019.51 1019.63 1019.75 1019.88 1019.99 1020.08 1020.16 1020.22 1020.27 1020.30 1020.31
1018.93 1018.91 1018.90 1018.91 1018.96 1019.07 1019.22 1019.40 1019.57 1019.69 1019.73 1019.66 1019.47 1019.18 1018.83 1018.46 1018.14 1017.90 1017.78 1017.77 1017.87 1018.04 1018.25 1018.45 1018.62 1018.75 1018.83 1018.87 1018.90 1018.92 1018.96 1019.02 1019.10 1019.19 1019.30 1019.41 1019.52 1019.62 1019.70 1019.77 1019.82 1019.86 1019.89
1019.11 1019.12 1019.13 1019.15 1019.20 1019.29 1019.42 1019.56 1019.70 1019.80 1019.82 1019.73 1019.54 1019.24 1018.87 1018.47 1018.09 1017.78 1017.56 1017.45 1017.45 1017.54 1017.68 1017.85 1018.01 1018.15 1018.25 1018.33 1018.38 1018.42 1018.46 1018.50 1018.56 1018.64 1018.72 1018.82 1018.91 1019.00 1019.09 1019.18 1019.25 1019.31 1019.36
1019.12 1019.16 1019.20 1019.24 1019.30 1019.38 1019.49 1019.60 1019.70 1019.76 1019.75 1019.65 1019.44 1019.14 1018.77 1018.35 1017.93 1017.56 1017.27 1017.07 1016.97 1016.97 1017.03 1017.15 1017.28 1017.42 1017.54 1017.64 1017.71 1017.77 1017.81 1017.86 1017.90 1017.96 1018.02 1018.09 1018.17 1018.26 1018.35 1018.45 1018.54 1018.64 1018.73
1018.93 1019.00 1019.08 1019.15 1019.22 1019.30 1019.39 1019.47 1019.52 1019.54 1019.50 1019.38 1019.18 1018.88 1018.52 1018.11 1017.68 1017.28 1016.93 1016.65 1016.47 1016.37 1016.36 1016.40 1016.49 1016.60 1016.72 1016.83 1016.92 1017.00 1017.05 1017.10 1017.14 1017.18 1017.22 1017.27 1017.33 1017.41 1017.50 1017.61 1017.73 1017.85 1017.98
1018.56 1018.66 1018.76 1018.86 1018.95 1019.04 1019.11 1019.16 1019.18 1019.17 1019.10 1018.97 1018.76 1018.49 1018.16 1017.77 1017.37 1016.96 1016.58 1016.25 1015.99 1015.81 1015.70 1015.66 1015.69 1015.75 1015.85 1015.95 1016.05 1016.14 1016.22 1016.28 1016.32 1016.35 1016.38 1016.41 1016.46 1016.52 1016.60 1016.71 1016.84 1016.98 1017.14
1018.06 1018.17 1018.28 1018.40 1018.51 1018.60 1018.67 1018.70 1018.70 1018.66 1018.57 1018.44 1018.26 1018.02 1017.74 1017.41 1017.04 1016.66 1016.27 1015.91 1015.58 1015.32 1015.12 1014.99 1014.93 1014.93 1014.98 1015.07 1015.17 1015.27 1015.37 1015.45 1015.51 1015.54 1015.57 1015.59 1015.61 1015.65 1015.71 1015.80 1015.91 1016.06 1016.24
1017.50 1017.58 1017.70 1017.83 1017.95 1018.05 1018.12 1018.14 1018.12 1018.07 1017.98 1017.86 1017.71 1017.53 1017.31 1017.05 1016.75 1016.41 1016.04 1015.66 1015.29 1014.95 1014.66 1014.43 1014.28 1014.20 1014.20 1014.25 1014.34 1014.46 1014.58 1014.68 1014.76 1014.82 1014.84 1014.85 1014.85 1014.86 1014.88 1014.93 1015.01 1015.13 1015.29
1016.94 1016.99 1017.09 1017.21 1017.34 1017.45 1017.52 1017.54 1017.52 1017.46 1017.38 1017.29 1017.18 1017.06 1016.92 1016.74 1016.51 1016.23 1015.90 1015.52 1015.12 1014.71 1014.34 1014.02 1013.77 1013.61 1013.55 1013.56 1013.64 1013.76 1013.90 1014.03 1014.14 1014.21 1014.25 1014.24 1014.22 1014.18 1014.16 1014.15 1014.17 1014.24 1014.34
1016.44 1016.44 1016.51 1016.62 1016.75 1016.85 1016.92 1016.94 1016.92 1016.87 1016.81 1016.74 1016.69 1016.63 1016.57 1016.47 1016.33 1016.11 1015.83 1015.47 1015.05 1014.60 1014.16 1013.76 1013.43 1013.20 1013.07 1013.05 1013.11 1013.23 1013.38 1013.53 1013.66 1013.75 1013.78 1013.77 1013.72 1013.64 1013.55 1013.47 1013.42 1013.40 1013.43
1016.03 1015.99 1016.02 1016.11 1016.22 1016.32 1016.38 1016.40 1016.38 1016.34 1016.29 1016.25 1016.24 1016.24 1016.25 1016.23 1016.17 1016.02 1015.79 1015.46 1015.05 1014.59 1014.11 1013.65 1013.26 1012.97 1012.79 1012.72 1012.75 1012.86 1013.01 1013.17 1013.31 1013.40 1013.44 1013.41 1013.32 1013.20 1013.05 1012.90 1012.76 1012.66 1012.60
1015.73 1015.65 1015.66 1015.72 1015.80 1015.88 1015.93 1015.94 1015.91 1015.87 1015.83 1015.82 1015.84 1015.89 1015.95 1016.00 1016.00 1015.92 1015.75 1015.46 1015.08 1014.62 1014.14 1013.66 1013.23 1012.90 1012.68 1012.58 1012.58 1012.66 1012.79 1012.94 1013.07 1013.15 1013.16 1013.11 1013.00 1012.83 1012.63 1012.41 1012.20 1012.02 1011.86
1015.55 1015.45 1015.42 1015.45 1015.50 1015.55 1015.58 1015.57 1015.53 1015.49 1015.45 1015.44 1015.48 1015.55 1015.65 1015.75 1015.80 1015.78 1015.66 1015.43 1015.10 1014.68 1014.22 1013.75 1013.32 1012.98 1012.73 1012.59 1012.56 1012.60 1012.69 1012.80 1012.89 1012.93 1012.91 1012.83 1012.69 1012.49 1012.25 1011.99 1011.73 1011.48 1011.25
1015.49 1015.37 1015.32 1015.32 1015.34 1015.36 1015.35 1015.32 1015.26 1015.20 1015.15 1015.14 1015.17 1015.25 1015.36 1015.48 1015.57 1015.60 1015.54 1015.37 1015.09 1014.74 1014.32 1013.90 1013.50 1013.16 1012.90 1012.74 1012.66 1012.64 1012.67 1012.71 1012.73 1012.71 1012.65 1012.53 1012.35 1012.13 1011.87 1011.60 1011.32 1011.04 1010.77
1015.52 1015.41 1015.35 1015.32 1015.31 1015.29 1015.26 1015.20 1015.11 1015.02 1014.95 1014.92 1014.93 1015.00 1015.11 1015.23 1015.34 1015.39 1015.37 1015.26 1015.06 1014.78 1014.44 1014.08 1013.73 1013.41 1013.16 1012.97 1012.84 1012.75 1012.70 1012.64 1012.57 1012.48 1012.34 1012.17 1011.97 1011.74 1011.48 1011.22 1010.95 1010.67 1010.40
1015.63 1015.54 1015.48 1015.44 1015.40 1015.36 1015.29 1015.20 1015.09 1014.98 1014.88 1014.81 1014.80 1014.83 1014.92 1015.02 1015.13 1015.20 1015.21 1015.15 1015.02 1014.82 1014.56 1014.28 1013.98 1013.71 1013.46 1013.25 1013.07 1012.91 1012.75 1012.59 1012.42 1012.22 1012.01 1011.78 1011.55 1011.31 1011.08 1010.84 1010.61 1010.37 1010.12
1015.79 1015.73 1015.68 1015.63 1015.59 1015.53 1015.44 1015.33 1015.19 1015.06 1014.93 1014.83 1014.78 1014.78 1014.83 1014.90 1014.99 1015.06 1015.10 1015.08 1015.01 1014.87 1014.70 1014.49 1014.26 1014.02 1013.79 1013.56 1013.32 1013.08 1012.83 1012.56 1012.27 1011.98 1011.68 1011.39 1011.12 1010.88 1010.66 1010.46 1010.27 1010.08 1009.87
1015.97 1015.94 1015.91 1015.87 1015.82 1015.75 1015.66 1015.54 1015.39 1015.24 1015.09 1014.97 1014.89 1014.85 1014.86 1014.91 1014.97 1015.03 1015.07 1015.07 1015.04 1014.96 1014.85 1014.70 1014.53 1014.33 1014.10 1013.86 1013.58 1013.27 1012.93 1012.56 1012.16 1011.77 1011.39 1011.03 1010.72 1010.47 1010.25 1010.08 1009.93 1009.77 1009.60
1016.12 1016.12 1016.11 1016.09 1016.05 1015.99 1015.90 1015.77 1015.63 1015.47 1015.32 1015.19 1015.09 1015.03 1015.01 1015.03 1015.06 1015.10 1015.14 1015.15 1015.14 1015.09 1015.02 1014.92 1014.78 1014.60 1014.39 1014.13 1013.82 1013.45 1013.04 1012.59 1012.11 1011.63 1011.17 1010.76 1010.40 1010.11 1009.88 1009.71 1009.56 1009.43 1009.27
1016.20 1016.23 1016.24 1016.23 1016.21 1016.16 1016.08 1015.97 1015.84 1015.70 1015.56 1015.43 1015.34 1015.27 1015.24 1015.24 1015.25 1015.28 1015.30 1015.30 1015.29 1015.26 1015.20 1015.11 1014.99 1014.82 1014.61 1014.34 1014.01 1013.62 1013.16 1012.66 1012.12 1011.58 1011.07 1010.59 1010.18 1009.84 1009.57 1009.36 1009.18 1009.02 1008.84
1016.17 1016.22 1016.24 1016.25 1016.24 1016.20 1016.14 1016.05 1015.94 1015.83 1015.72 1015.63 1015.56 1015.51 1015.49 1015.49 1015.50 1015.51 1015.51 1015.50 1015.47 1015.42 1015.35 1015.26 1015.13 1014.96 1014.75 1014.48 1014.14 1013.73 1013.27 1012.74 1012.18 1011.61 1011.05 1010.53 1010.06 1009.65 1009.31 1009.02 1008.77 1008.54 1008.30
1016.00 1016.05 1016.09 1016.10 1016.10 1016.07 1016.02 1015.96 1015.89 1015.82 1015.75 1015.71 1015.68 1015.68 1015.69 1015.71 1015.73 1015.73 1015.72 1015.69 1015.64 1015.56 1015.45 1015.33 1015.18 1015.00 1014.77 1014.50 1014.17 1013.78 1013.33 1012.82 1012.26 1011.68 1011.10 1010.54 1010.01 1009.53 1009.10 1008.71 1008.35 1008.01 1007.67
1015.70 1015.74 1015.78 1015.79 1015.78 1015.76 1015.73 1015.69 1015.65 1015.62 1015.61 1015.62 1015.66 1015.71 1015.77 1015.83 1015.87 1015.89 1015.87 1015.82 1015.73 1015.60 1015.46 1015.29 1015.10 1014.90 1014.66 1014.40 1014.08 1013.72 1013.30 1012.83 1012.30 1011.75 1011.16 1010.58 1010.00 1009.44 1008.91 1008.40 1007.92 1007.45 1006.98
1015.27 1015.31 1015.34 1015.34 1015.33 1015.30 1015.28 1015.25 1015.24 1015.25 1015.29 1015.37 1015.47 1015.59 1015.70 1015.81 1015.89 1015.91 1015.89 1015.82 1015.69 1015.53 1015.33 1015.12 1014.89 1014.66 1014.41 1014.15 1013.86 1013.53 1013.16 1012.74 1012.26 1011.73 1011.17 1010.57 1009.95 1009.33 1008.70 1008.09 1007.48 1006.88 1006.30
1014.78 1014.81 1014.82 1014.82 1014.80 1014.76 1014.74 1014.72 1014.73 1014.77 1014.86 1014.98 1015.14 1015.31 1015.48 1015.63 1015.73 1015.78 1015.75 1015.66 1015.50 1015.30 1015.06 1014.80 1014.54 1014.27 1014.02 1013.76 1013.50 1013.21 1012.89 1012.52 1012.09 1011.60 1011.06 1010.46 1009.82 1009.15 1008.46 1007.75 1007.04 1006.34 1005.66
Thickness
5777 5776 5774 5772 5771 5769 5768 5767 5767 5766 5765 5765 5766 5767 5767 5767 5768 5768 5767 5763 5761 5759 5758 5756 5755 5753 5752 5750 5749 5748 5746 5745 5744 5742 5741 5740 5739 5738 5736 5734 5733 5731 5730
5776 5775 5774 5771 5771 5769 5769 5767 5767 5765 5765 5766 5766 5766 5766 5767 5767 5766 5767 5765 5762 5760 5758 5757 5755 5754 5753 5751 5750 5749 5748 5746 5745 5744 5742 5741 5740 5739 5737 5735 5734 5733 5731
5775 5774 5773 5772 5771 5770 5768 5767 5766 5766 5765 5765 5765 5766 5767 5766 5767 5766 5767 5766 5765 5761 5759 5757 5756 5755 5754 5753 5752 5750 5749 5748 5747 5745 5744 5743 5741 5740 5738 5737 5735 5734 5732
5775 5774 5774 5773 5771 5770 5769 5767 5767 5766 5764 5764 5765 5766 5766 5766 5766 5766 5767 5766 5765 5765 5761 5759 5757 5755 5754 5753 5753 5752 5750 5749 5748 5747 5745 5744 5743 5741 5740 5738 5737 5735 5734
5775 5774 5774 5772 5770 5770 5769 5768 5767 5765 5764 5763 5764 5765 5766 5766 5766 5767 5767 5766 5766 5765 5764 5760 5758 5757 5755 5754 5753 5752 5751 5750 5749 5748 5746 5745 5743 5742 5741 5740 5738 5736 5735
5775 5774 5773 5771 5770 5770 5768 5767 5764 5764 5763 5762 5764 5764 5765 5767 5767 5767 5767 5767 5766 5765 5765 5763 5761 5759 5756 5755 5754 5753 5752 5751 5750 5748 5747 5746 5744 5743 5742 5740 5739 5737 5736
5776 5773 5774 5771 5770 5769 5767 5767 5765 5763 5762 5763 5761 5760 5763 5766 5766 5766 5767 5767 5767 5766 5765 5763 5763 5762 5760 5756 5755 5754 5753 5752 5751 5750 5748 5747 5745 5743 5742 5740 5739 5738 5736
5776 5775 5772 5772 5771 5768 5766 5765 5764 5763 5763 5763 5760 5756 5754 5757 5761 5766 5766 5765 5766 5766 5765 5764 5762 5761 5760 5760 5757 5755 5753 5752 5751 5750 5749 5747 5746 5744 5742 5741 5739 5738 5736
5776 5774 5773 5772 5771 5770 5768 5765 5764 5762 5759 5761 5762 5758 5753 5751 5757 5763 5764 5765 5764 5764 5765 5764 5763 5761 5760 5759 5759 5755 5754 5752 5751 5750 5749 5747 5746 5744 5742 5741 5740 5738 5737
5776 5775 5773 5772 5770 5771 5768 5767 5767 5764 5760 5758 5760 5761 5760 5759 5754 5754 5760 5763 5763 5762 5763 5764 5763 5761 5760 5759 5757 5755 5753 5752 5750 5749 5748 5746 5745 5744 5742 5740 5739 5738 5737
5776 5775 5773 5772 5770 5770 5768 5767 5765 5764 5763 5760 5759 5759 5758 5757 5758 5753 5752 5756 5759 5762 5763 5762 5762 5762 5760 5758 5757 5756 5753 5751 5749 5748 5746 5745 5744 5742 5741 5739 5738 5737 5736
5776 5774 5773 5771 5770 5770 5768 5766 5765 5764 5762 5761 5760 5760 5757 5756 5755 5754 5752 5753 5754 5758 5760 5761 5761 5761 5760 5758 5756 5753 5751 5749 5747 5746 5744 5743 5742 5740 5739 5738 5737 5736 5735
5774 5773 5773 5771 5770 5768 5767 5766 5764 5764 5762 5760 5758 5759 5759 5759 5759 5756 5753 5752 5752 5755 5756 5758 5760 5759 5758 5757 5754 5751 5749 5747 5745 5744 5742 5741 5740 5738 5737 5737 5736 5734 5733
5774 5773 5771 5770 5769 5768 5767 5766 5765 5764 5762 5760 5759 5758 5758 5759 5759 5757 5754 5750 5747 5750 5752 5753 5757 5757 5756 5754 5751 5748 5747 5745 5743 5741 5740 5738 5737 5735 5734 5734 5733 5732 5731
5772 5771 5769 5768 5767 5766 5765 5764 5763 5762 5760 5759 5759 5758 5757 5759 5758 5757 5756 5752 5745 5742 5745 5749 5751 5753 5751 5750 5747 5746 5745 5742 5740 5738 5737 5735 5734 5732 5731 5730 5729 5729 5728
5769 5768 5766 5765 5764 5763 5762 5761 5760 5760 5757 5756 5756 5755 5754 5757 5756 5755 5753 5751 5749 5745 5743 5749 5747 5748 5746 5746 5743 5742 5741 5739 5738 5736 5734 5732 5731 5729 5728 5727 5725 5724 5723
5766 5764 5763 5762 5761 5760 5759 5757 5757 5756 5753 5753 5752 5752 5751 5751 5751 5750 5750 5748 5746 5744 5740 5744 5745 5743 5739 5739 5738 5738 5738 5737 5737 5734 5731 5729 5728 5726 5724 5723 5722 5720 5719
5763 5761 5760 5759 5758 5757 5756 5754 5752 5751 5750 5749 5748 5747 5746 5746 5744 5745 5744 5744 5742 5740 5737 5734 5736 5737 5735 5734 5733 5732 5735 5736 5734 5731 5728 5726 5724 5722 5720 5719 5717 5715 5714
5759 5758 5756 5754 5754 5753 5752 5750 5749 5747 5747 5746 5744 5743 5741 5740 5738 5739 5738 5738 5739 5739 5735 5732 5732 5731 5731 5731 5728 5728 5729 5728 5729 5728 5725 5723 5720 5718 5716 5715 5713 5711 5709
5754 5753 5751 5750 5749 5748 5747 5745 5744 5743 5742 5741 5741 5739 5737 5736 5733 5733 5732 5731 5731 5731 5730 5728 5727 5726 5725 5725 5721 5720 5721 5721 5722 5723 5721 5719 5716 5714 5712 5710 5708 5706 5704
5750 5748 5745 5744 5743 5743 5742 5739 5738 5738 5736 5736 5736 5735 5734 5732 5730 5729 5729 5727 5725 5724 5724 5722 5721 5720 5718 5716 5714 5715 5714 5714 5714 5716 5715 5714 5713 5711 5709 5706 5703 5700 5698
5743 5742 5740 5738 5737 5738 5734 5731 5730 5731 5730 5729 5729 5729 5728 5726 5724 5721 5720 5719 5717 5717 5717 5716 5716 5713 5711 5711 5709 5708 5707 5705 5704 5709 5706 5706 5707 5706 5705 5703 5698 5695 5692
5736 5734 5733 5732 5731 5729 5726 5723 5722 5722 5723 5723 5722 5721 5723 5723 5718 5717 5713 5710 5710 5708 5708 5708 5708 5707 5706 5706 5702 5700 5698 5697 5697 5699 5697 5697 5699 5698 5698 5696 5692 5688 5685
5729 5727 5725 5724 5723 5722 5718 5715 5714 5715 5717 5716 5716 5715 5713 5711 5711 5708 5708 5706 5706 5704 5702 5700 5700 5700 5699 5697 5694 5693 5692 5691 5691 5692 5690 5688 5691 5690 5690 5688 5684 5681 5678
5720 5719 5718 5717 5716 5714 5711 5708 5705 5709 5710 5710 5709 5708 5706 5704 5699 5698 5698 5697 5697 5696 5695 5692 5690 5689 5688 5686 5684 5684 5684 5682 5682 5684 5684 5681 5682 5681 5680 5679 5676 5673 5670
5713 5712 5711 5710 5709 5707 5704 5702 5698 5702 5703 5703 5702 5701 5697 5694 5690 5688 5689 5689 5687 5688 5687 5684 5681 5680 5680 5678 5675 5674 5675 5674 5674 5674 5676 5672 5672 5671 5669 5670 5668 5664 5662